{"data":{"norad_id":59505,"intl_designator":"2024-071X","name":"STARLINK-31533","alt_names":[],"object_type":"PAYLOAD","status":"ACTIVE","operator":null,"country":"US","launch_date":"2024-04-13","launch_site_code":"AFETR","launch_vehicle":null,"mission":null,"orbit_class":"UNKNOWN","rcs_meters":null,"size_class":null,"mass_kg":null,"dimensions":null,"purposes":["comms"],"wikipedia_slug":null,"has_3d_model":false,"image_url":null,"decayed_at":null,"tle_current":{"epoch":"2026-09-20T12:01:22.740096Z","epoch_age_seconds":165133,"freshness":"FRESH","line1":"1 59505U 24071X   26263.50095764  .00000461  00000+0  26290-4 0  9996","line2":"2 59505  43.0022 320.0528 0001356 271.3680  88.7017 15.27578828137992","mean_motion":15.27578828,"eccentricity":0.0001356,"inclination_deg":43.0022,"raan_deg":320.0528,"arg_perigee_deg":271.368,"mean_anomaly_deg":88.7017,"bstar":2.629e-5,"rev_number":13799,"period_min":94.266821037664,"perigee_km":482.12222812102,"apogee_km":483.98298274202,"semimajor_km":6861.1896054315,"source":"CELESTRAK","updated_at":"2026-09-22T09:00:48.961603Z"}}}